{"data":{"norad_id":66585,"intl_designator":"2025-268AE","name":"STARLINK-35963","alt_names":[],"object_type":"PAYLOAD","status":"ACTIVE","operator":null,"country":"US","launch_date":"2025-11-21","launch_site_code":"AFETR","launch_vehicle":null,"mission":null,"orbit_class":"UNKNOWN","rcs_meters":null,"size_class":null,"mass_kg":null,"dimensions":null,"purposes":["comms"],"wikipedia_slug":null,"has_3d_model":false,"image_url":null,"decayed_at":null,"tle_current":{"epoch":"2026-05-25T01:09:07.568928Z","epoch_age_seconds":74941,"freshness":"FRESH","line1":"1 66585U 25268AE  26145.04800427  .00005541  00000+0  21071-3 0  9994","line2":"2 66585  43.0025 276.1862 0001252 280.8417  79.2293 15.27580814 29631","mean_motion":15.27580814,"eccentricity":0.0001252,"inclination_deg":43.0025,"raan_deg":276.1862,"arg_perigee_deg":280.8417,"mean_anomaly_deg":79.2293,"bstar":0.00021071,"rev_number":2963,"period_min":94.266698481852,"perigee_km":482.18763843784,"apogee_km":483.90567882596,"semimajor_km":6861.1836586319,"source":"CELESTRAK","updated_at":"2026-05-25T13:38:21.286239Z"}}}